User: anonymous   Login
Location: Newark
(42.7133°N, 87.7910°W)
Time: 11:58:16
(UTC+00:00)
Language:

A-11 Canister half - Orbit

View from above orbital plane
View from above orbital plane
View from above satellite
View from above satellite

Ground track
Ground track

The orbit data is extracted from the following two-line orbital elements,

1    51U 60009C   19265.50470101 -.00000034  00000-0  50636-3 0  9993
2    51  47.2116  99.4757 0108275  83.5018 277.8085 12.18278370631295
Epoch (UTC): 22 September 2019 12:06:46
Eccentricity: 0.0108275
inclination: 47.2116°
perigee height: 1513 km
apogee height: 1686 km
right ascension of ascending node: 99.4757°
argument of perigee: 83.5018°
revolutions per day: 12.18278370
mean anomaly at epoch: 277.8085°
orbit number at epoch: 63129

The dashed part of the orbit path shows where the satellite is in the earth's shadow,  

DLR